CZ-4C DEB

Satellite information

Favourite Embed

Satellite Type and Status

DEBRISIN ORBIT

Key statistics

Satellite CZ-4C DEB at a glance.

Uptime

5298

Days in orbit

Revolutions

≈ 13.7

Per day

Orbit

SSO

Sun Synchronous Orbit

Inclination

98.7

Latest

Satellite identification and parameters

Extended collection of information and parameters for CZ-4C DEB.

Object identification

Identified? True

Debris? True

Object name: CZ-4C DEB

International designator: 2010-059D

Object number (NORAD): 38294

Object ID (CCSDS): 38294

Country: PEOPLES REPUBLIC OF CHINA (PRC)

Current information (Y/N): Y

RCS size: SMALL

Orbital parameters

Period: 104.843 minutes

Inclination: 98.696 deg

SMA: 7365.242 km

Apoapsis: 1179.782 km

Periapsis: 794.432 km

RAAN: 9.934 deg

Eccentricy: 0.02616

Argument of periapsis: 145.3341 deg

Mean anomaly: 216.5175 deg

Mean motion: 13.73479625 rev/day

Mean motion (dot): 0.00000501 rev/day2

B* drag term: 0.00045188 1/REarth

Two-line elements (TLE)

Creation date: May 7, 2025, 3:14 a.m.

Reference frame: TEME

Reference center: EARTH

Epoch: May 6, 2025, 9:37 p.m. UTC

TLE line 0: 0 CZ-4C DEB

TLE line 1: 1 38294U 10059D 25126.90112169 .00000501 00000-0 45188-3 0 9991

TLE line 2: 2 38294 98.6960 9.9340 0261600 145.3341 216.5175 13.73479625713282

Live tracking on map

Real-time ground track for satellite CZ-4C DEB.

In-orbit conjunctions

A list of the most updated potential collisions computed for object CZ-4C DEB.

Target Orbit TCA Probability of collision Miss distance Type
CZ-6A DEB LEO 2024-11-08 15:46:57 0.0002653591 764.0 (m) DEBRIS

Associated space launch

CZ-4C DEB was lifted into orbit during the mission ‘Long March 4C | Feng Yun-3B’, on board a Long March 4C space rocket.

The launch took place on Nov. 4, 2010, 6:37 p.m. from Launch Complex 7.

For more information about the launch, click the button.

Launch to space Long March 4C | Feng Yun-3B
Long March 4C | Feng Yun-3B

Agency: N/A

Status: Launch Successful

Launch date: Nov. 4, 2010, 6:37 p.m. UTC

Rocket: Long March 4C

Launch pad: Launch Complex 7

Location: Taiyuan Satellite Launch Center, People's Republic of China

...

Latest news about this satellite

There are no fresh news available about this satellite. Check back as we update our databases every day.


Newsletter sign-up

Weekly statistics, charts and insights to help you stay on top of the space industry.